Terminal Aerodrome Forecast
Issued by NWS Denver/Boulder, CO

Home | Current Version | Previous Version | Text Only | Print | Product List | Glossary On
Versions: 1 2 3 4 5 6 7 8 9 10 11 12 13 14 15 16 17 18 19 20 21 22 23 24 25 26 27 28 29 30 31 32 33 34 35 36 37 38 39 40 41 42 43 44 45 46 47 48 49 50
000
FTUS45 KBOU 311128
TAFDEN
TAF
KDEN 311128Z 3112/0118 26006KT P6SM SCT220
     FM311400 VRB05KT P6SM FEW120 SCT200
     FM311800 15014KT P6SM FEW090 SCT140
     FM312100 16014G20KT P6SM VCSH SCT090 BKN140
     FM010200 17012KT P6SM SCT080 BKN120
     FM010400 20011KT P6SM FEW090 SCT120=

USA.gov is the U.S. government's official web portal to all federal, state and local government web resources and services.